Franklin, PA

11:18 AM EST on December 08, 2019 (GMT -0500)
Venango Regional

Weather History for KFKL - August, 2019

Change the Weather History Date:

Friday, August 30, 2019

  Actual Average Record
Temperature  
Mean Temperature 68 °F -  
Max Temperature 77 °F 79 °F 96 °F (1953)
Min Temperature 57 °F 56 °F 36 °F (1934)
Cooling Degree Days 2    
Growing Degree Days 18 (Base 50)    
Moisture  
Dew Point 59 °F    
Average Humidity 75    
Maximum Humidity 97    
Minimum Humidity 56    
Precipitation  
Precipitation 0.00 in - - ()
Sea Level Pressure  
Sea Level Pressure 30.06 in    
Wind  
Wind Speed 8 mph (WSW)    
Max Wind Speed 13 mph    
Max Gust Speed 18 mph    
Visibility 10 miles    
Events      
Averages and records for this station are not official NWS values.
T = Trace of Precipitation, MM = Missing Value Source: NWS Daily Summary

Daily Weather History Graph

Daily Weather History Graph

Search for Another Location

Airport or City:

Astronomy

Aug. 30, 2019 Rise Set
Actual Time 6:43 AM EDT 7:55 PM EDT
Civil Twilight 6:14 AM EDT 8:24 PM EDT
Nautical Twilight 5:40 AM EDT 8:58 PM EDT
Astronomical Twilight 5:04 AM EDT 9:34 PM EDT
Moon 6:41 AM EDT (8/30) 8:31 PM EDT (8/30)
Length of Visible Light 14h 09m
Length of Day
13h 12m
New Moon, 0% of the Moon is Illuminated
Aug 30
New Moon
Sep 5
First Quarter
Sep 14
Full
Sep 21
Last Quarter
Sep 28
New

Hourly Weather History & Observations

Time (EDT) Temp. Dew Point Humidity Pressure Visibility Wind Dir Wind Speed Gust Speed Precip Events Conditions
12:56 AM 64.0 °F 55.0 °F 73% 30.01 in 10.0 mi SW 10.4 mph - N/A   Mostly Cloudy
1:56 AM 64.0 °F 55.0 °F 73% 29.99 in 10.0 mi SSW 10.4 mph - N/A   Mostly Cloudy
2:56 AM 64.9 °F 55.9 °F 73% 29.96 in 10.0 mi SW 12.7 mph - N/A   Overcast
3:56 AM 66.9 °F 57.0 °F 70% 29.96 in 10.0 mi SW 12.7 mph 18.4 mph N/A   Overcast
4:56 AM 66.0 °F 57.0 °F 73% 29.96 in 10.0 mi SW 6.9 mph - N/A   Mostly Cloudy
5:56 AM 63.0 °F 57.0 °F 81% 29.98 in 10.0 mi SW 8.1 mph - N/A   Mostly Cloudy
6:40 AM 62.6 °F 57.2 °F 82% 30.00 in 10.0 mi SW 6.9 mph - N/A   Mostly Cloudy
6:56 AM 63.0 °F 57.9 °F 84% 29.99 in 10.0 mi SW 6.9 mph - N/A   Overcast
7:28 AM 62.6 °F 57.2 °F 82% 30.02 in 10.0 mi SSW 8.1 mph - N/A   Scattered Clouds
7:56 AM 64.0 °F 57.9 °F 80% 30.02 in 10.0 mi SW 8.1 mph - N/A   Scattered Clouds
8:20 AM 64.4 °F 59.0 °F 83% 30.04 in 10.0 mi SW 8.1 mph - N/A   Overcast
8:56 AM 66.0 °F 60.1 °F 81% 30.04 in 10.0 mi SW 6.9 mph - N/A   Overcast
9:56 AM 66.9 °F 61.0 °F 81% 30.05 in 10.0 mi WSW 6.9 mph - N/A   Overcast
10:56 AM 70.0 °F 62.1 °F 76% 30.06 in 10.0 mi WSW 9.2 mph - N/A   Overcast
11:56 AM 73.0 °F 64.0 °F 73% 30.06 in 10.0 mi WSW 10.4 mph - N/A   Overcast
12:52 PM 73.4 °F 64.4 °F 73% 30.08 in 10.0 mi West 5.8 mph - N/A   Scattered Clouds
12:56 PM 73.9 °F 64.0 °F 71% 30.06 in 10.0 mi West 5.8 mph - N/A   Scattered Clouds
1:56 PM 75.9 °F 63.0 °F 64% 30.07 in 10.0 mi West 9.2 mph - N/A   Scattered Clouds
2:56 PM 75.9 °F 60.1 °F 58% 30.07 in 10.0 mi NW 8.1 mph - N/A   Partly Cloudy
3:56 PM 75.9 °F 59.0 °F 56% 30.07 in 10.0 mi NNW 9.2 mph - N/A   Scattered Clouds
4:56 PM 75.9 °F 59.0 °F 56% 30.08 in 10.0 mi Variable 6.9 mph - N/A   Clear
5:56 PM 73.0 °F 57.9 °F 59% 30.09 in 10.0 mi Variable 4.6 mph - N/A   Clear
6:56 PM 71.1 °F 57.9 °F 63% 30.11 in 10.0 mi NW 4.6 mph - N/A   Clear
7:56 PM 68.0 °F 57.9 °F 70% 30.13 in 10.0 mi Variable 3.5 mph - N/A   Clear
8:56 PM 64.9 °F 57.9 °F 78% 30.16 in 10.0 mi Calm Calm - N/A   Clear
9:56 PM 62.1 °F 57.9 °F 86% 30.18 in 10.0 mi North 3.5 mph - N/A   Clear
10:56 PM 60.1 °F 57.9 °F 93% 30.19 in 10.0 mi NNE 3.5 mph - N/A   Clear
11:56 PM 57.9 °F 57.0 °F 97% 30.19 in 9.0 mi Calm Calm - N/A   Clear